| time (UTC) | temp C | wind direction | speed KPH | gust KPH | rain 1hr cm | rain 24hr cm | rain mn cm | humidity % | barometer mb |
| 20260502164304 | 18 | 170 | 8.0 | 17.7 | 0.00 | 0.00 | 0.00 | 34 | 1021.8 |
| 20260502163803 | 18 | 129 | 8.0 | 19.3 | 0.00 | 0.00 | 0.00 | 33 | 1021.8 |
| 20260502163303 | 18 | 166 | 6.4 | 19.3 | 0.00 | 0.00 | 0.00 | 31 | 1021.8 |
| 20260502162305 | 18 | 134 | 6.4 | 16.1 | 0.00 | 0.00 | 0.00 | 37 | 1021.8 |
| 20260502161306 | 17 | 191 | 6.4 | 16.1 | 0.00 | 0.00 | 0.00 | 33 | 1021.7 |
| 20260502160803 | 17 | 143 | 6.4 | 16.1 | 0.00 | 0.00 | 0.00 | 35 | 1021.7 |
| 20260502160304 | 17 | 172 | 6.4 | 14.5 | 0.00 | 0.00 | 0.00 | 36 | 1021.8 |
| 20260502152254 | 14 | 177 | 6.4 | 12.9 | 0.00 | 0.00 | 0.00 | 42 | 1022.0 |
| 20260502151754 | 13 | 172 | 6.4 | 14.5 | 0.00 | 0.00 | 0.00 | 43 | 1022.0 |
| 20260502151249 | 13 | 179 | 6.4 | 16.1 | 0.00 | 0.00 | 0.00 | 42 | 1021.9 |
| 20260502150750 | 13 | 203 | 6.4 | 17.7 | 0.00 | 0.00 | 0.00 | 41 | 1022.0 |
| 20260502150251 | 13 | 136 | 6.4 | 17.7 | 0.00 | 0.00 | 0.00 | 40 | 1021.9 |
| 20260502130713 | 7 | 175 | 3.2 | 8.0 | 0.00 | 0.00 | 0.00 | 61 | 1021.5 |
| 20260502130217 | 7 | 170 | 1.6 | 8.0 | 0.00 | 0.00 | 0.00 | 60 | 1021.5 |
| 20260502123210 | 8 | 147 | 0.0 | 0.0 | 0.00 | 0.00 | 0.00 | 60 | 1021.4 |
| 20260502122708 | 8 | 147 | 0.0 | 3.2 | 0.00 | 0.00 | 0.00 | 61 | 1021.3 |
| 20260502122205 | 9 | 147 | 0.0 | 3.2 | 0.00 | 0.00 | 0.00 | 61 | 1021.4 |
| 20260502121206 | 9 | 147 | 1.6 | 4.8 | 0.00 | 0.00 | 0.00 | 61 | 1021.4 |
| 20260502120708 | 9 | 138 | 1.6 | 8.0 | 0.00 | 0.00 | 0.00 | 62 | 1021.4 |
| 20260502120205 | 9 | 132 | 1.6 | 8.0 | 0.00 | 0.00 | 0.00 | 61 | 1021.4 |
| 20260502115205 | 9 | 143 | 3.2 | 9.7 | 0.00 | 0.00 | 0.00 | 61 | 1021.4 |
| 20260502114708 | 10 | 174 | 1.6 | 8.0 | 0.00 | 0.00 | 0.00 | 61 | 1021.4 |
| 20260502114207 | 10 | 174 | 3.2 | 6.4 | 0.00 | 0.00 | 0.00 | 61 | 1021.4 |
| 20260502113703 | 10 | 170 | 3.2 | 9.7 | 0.00 | 0.00 | 0.00 | 60 | 1021.3 |
| 20260502113202 | 9 | 180 | 3.2 | 9.7 | 0.00 | 0.00 | 0.00 | 59 | 1021.3 |
| 20260502112703 | 9 | 182 | 3.2 | 11.3 | 0.00 | 0.00 | 0.00 | 59 | 1021.4 |
| 20260502112204 | 9 | 153 | 3.2 | 11.3 | 0.00 | 0.00 | 0.00 | 59 | 1021.4 |
| 20260502111703 | 9 | 196 | 3.2 | 9.7 | 0.00 | 0.00 | 0.00 | 60 | 1021.3 |
| 20260502111203 | 9 | 163 | 3.2 | 9.7 | 0.00 | 0.00 | 0.00 | 59 | 1021.4 |
| 20260502110203 | 9 | 182 | 3.2 | 8.0 | 0.00 | 0.00 | 0.00 | 55 | 1021.4 |
| 20260502105700 | 8 | 198 | 1.6 | 8.0 | 0.00 | 0.00 | 0.00 | 54 | 1021.4 |
| 20260502105200 | 8 | 190 | 1.6 | 8.0 | 0.00 | 0.00 | 0.00 | 54 | 1021.4 |
| 20260502104659 | 8 | 196 | 1.6 | 8.0 | 0.00 | 0.00 | 0.00 | 54 | 1021.4 |
| 20260502104201 | 8 | 167 | 1.6 | 8.0 | 0.00 | 0.00 | 0.00 | 54 | 1021.5 |
| 20260502103700 | 9 | 186 | 0.0 | 4.8 | 0.00 | 0.00 | 0.00 | 54 | 1021.4 |
| 20260502103200 | 9 | 176 | 0.0 | 0.0 | 0.00 | 0.00 | 0.00 | 54 | 1021.5 |
| 20260502102700 | 9 | 176 | 0.0 | 1.6 | 0.00 | 0.00 | 0.00 | 55 | 1021.5 |
| 20260502102154 | 9 | 176 | 0.0 | 3.2 | 0.00 | 0.00 | 0.00 | 55 | 1021.5 |
| 20260502101652 | 9 | 176 | 1.6 | 6.4 | 0.00 | 0.00 | 0.00 | 55 | 1021.4 |
| 20260502101152 | 8 | 176 | 3.2 | 9.7 | 0.00 | 0.00 | 0.00 | 55 | 1021.4 |
| 20260502100652 | 8 | 173 | 3.2 | 9.7 | 0.00 | 0.00 | 0.00 | 56 | 1021.3 |
| 20260502100159 | 8 | 179 | 3.2 | 11.3 | 0.00 | 0.00 | 0.00 | 56 | 1021.3 |
| 20260502091147 | 7 | 249 | 0.0 | 0.0 | 0.00 | 0.00 | 0.00 | 51 | 1021.3 |
| 20260502090151 | 7 | 249 | 0.0 | 1.6 | 0.00 | 0.00 | 0.00 | 51 | 1021.3 |
| 20260502070625 | 7 | 307 | 0.0 | 0.0 | 0.00 | 0.00 | 0.00 | 55 | 1021.4 |
| 20260502070125 | 7 | 307 | 0.0 | 0.0 | 0.00 | 0.00 | 0.00 | 55 | 1021.5 |
| 20260502065623 | 7 | 307 | 0.0 | 0.0 | 0.00 | 0.00 | 0.00 | 55 | 1021.5 |
| 20260502065119 | 7 | 307 | 0.0 | 0.0 | 0.00 | 0.00 | 0.00 | 55 | 1021.4 |
| 20260502064618 | 7 | 307 | 0.0 | 0.0 | 0.00 | 0.00 | 0.00 | 54 | 1021.5 |
| 20260502064118 | 7 | 307 | 0.0 | 0.0 | 0.00 | 0.00 | 0.00 | 54 | 1021.4 |
| 20260502063611 | 8 | 307 | 0.0 | 0.0 | 0.00 | 0.00 | 0.00 | 54 | 1021.4 |
| 20260502063110 | 8 | 307 | 0.0 | 0.0 | 0.00 | 0.00 | 0.00 | 53 | 1021.5 |
| 20260502062609 | 8 | 307 | 0.0 | 0.0 | 0.00 | 0.00 | 0.00 | 53 | 1021.4 |
| 20260502062111 | 8 | 306 | 0.0 | 0.0 | 0.00 | 0.00 | 0.00 | 53 | 1021.4 |
| 20260502061610 | 8 | 307 | 0.0 | 0.0 | 0.00 | 0.00 | 0.00 | 52 | 1021.4 |
| 20260502061113 | 8 | 307 | 0.0 | 0.0 | 0.00 | 0.00 | 0.00 | 52 | 1021.3 |
| 20260502060610 | 8 | 306 | 0.0 | 0.0 | 0.00 | 0.00 | 0.00 | 52 | 1021.3 |
| 20260502060109 | 8 | 306 | 0.0 | 0.0 | 0.00 | 0.00 | 0.00 | 51 | 1021.3 |
| 20260502055609 | 8 | 306 | 0.0 | 0.0 | 0.00 | 0.00 | 0.00 | 51 | 1021.2 |
| 20260502055110 | 8 | 306 | 0.0 | 1.6 | 0.00 | 0.00 | 0.00 | 50 | 1021.2 |
| 20260502053605 | 9 | 306 | 0.0 | 0.0 | 0.00 | 0.00 | 0.00 | 50 | 1021.2 |
| 20260502052606 | 9 | 306 | 0.0 | 0.0 | 0.00 | 0.00 | 0.00 | 48 | 1021.1 |
| 20260502052102 | 9 | 306 | 0.0 | 0.0 | 0.00 | 0.00 | 0.00 | 46 | 1021.1 |
| 20260502051604 | 10 | 306 | 0.0 | 0.0 | 0.00 | 0.00 | 0.00 | 46 | 1021.1 |
| 20260502050104 | 10 | 306 | 0.0 | 0.0 | 0.00 | 0.00 | 0.00 | 46 | 1021.2 |
| 20260502045603 | 10 | 306 | 0.0 | 0.0 | 0.00 | 0.00 | 0.00 | 45 | 1021.1 |
| 20260502045103 | 10 | 306 | 0.0 | 0.0 | 0.00 | 0.00 | 0.00 | 45 | 1021.1 |
| 20260502044604 | 10 | 306 | 0.0 | 0.0 | 0.00 | 0.00 | 0.00 | 45 | 1021.1 |
| 20260502044103 | 10 | 306 | 0.0 | 0.0 | 0.00 | 0.00 | 0.00 | 45 | 1021.2 |
| 20260502043605 | 10 | 306 | 0.0 | 0.0 | 0.00 | 0.00 | 0.00 | 43 | 1021.2 |
| 20260502043105 | 11 | 306 | 0.0 | 0.0 | 0.00 | 0.00 | 0.00 | 43 | 1021.1 |
| 20260502042608 | 11 | 0.0 | 0.0 | 0.00 | 0.00 | 0.00 | 44 | 1020.9 | |
| 20260502042113 | 11 | 0.0 | 0.0 | 0.00 | 0.00 | 0.00 | 43 | 1021.0 |